Location: Unspecified
(0.0000°N, 0.0000°E)
Time: 14:41:24
(UTC+00:00)

A-11 Canister half - Visible Passes

Search period start: 17 July 2024 00:00
Search period end: 27 July 2024 00:00
Orbit: 1524 x 1684 km, 47.3° (Epoch: 16 July)

Date Brightness Start Highest point End Pass type
(mag) Time Alt. Az. Time Alt. Az. Time Alt. Az.
17 Jul 9.9 02:31:48 44° ENE 02:31:48 44° ENE 02:38:23 10° NE visible
17 Jul 9.9 04:30:07 26° W 04:33:31 31° NW 04:41:59 10° N visible
18 Jul 10.3 02:11:32 32° ENE 02:11:32 32° ENE 02:16:31 10° NE visible
18 Jul 9.8 04:09:51 31° WNW 04:11:42 33° NW 04:20:25 10° NNE visible
19 Jul 10.7 01:51:14 24° ENE 01:51:14 24° ENE 01:54:38 10° ENE visible
19 Jul 9.7 03:49:33 36° NW 03:49:54 36° NW 03:58:50 10° NNE visible
20 Jul 11.0 01:30:53 17° ENE 01:30:53 17° ENE 01:32:44 10° ENE visible
20 Jul 9.8 03:29:11 38° NW 03:29:11 38° NW 03:37:13 10° NNE visible
21 Jul 11.3 01:10:29 11° ENE 01:10:29 11° ENE 01:10:48 10° ENE visible
21 Jul 9.9 03:08:47 36° NNW 03:08:47 36° NNW 03:15:35 10° NNE visible
22 Jul 10.1 02:48:20 33° N 02:48:20 33° N 02:53:56 10° NNE visible
23 Jul 10.4 02:27:51 28° N 02:27:51 28° N 02:32:17 10° NNE visible
24 Jul 10.7 02:07:18 23° NNE 02:07:18 23° NNE 02:10:36 10° NNE visible
25 Jul 10.9 01:46:43 18° NNE 01:46:43 18° NNE 01:48:55 10° NNE visible
26 Jul 11.1 01:26:05 14° NNE 01:26:05 14° NNE 01:27:13 10° NNE visible
